Home > Weather > Dharmapuri > Past weeks

Flag for India Past Weather in Dharmapuri, Tamil Nadu, India — Yesterday and Last 2 Weeks

Now
73 °F

Scattered clouds.


Feels Like: 73 °F
Forecast: 75 / 93 °F
Wind: 7 mph from West

Location: Bangalore / Hindustan

Current Time: May 31, 2016 at 7:43:16 AM

Latest Report: May 31, 2016 at 7:00 AM


Visibility: 5 mi

Pressure: 29.92 "Hg

Humidity: 83%

Dew Point: 68 °F

Location of DharmapuriLocation

Past Weather in Dharmapuri — Graph

°F

Dharmapuri Temperature Yesterday

Maximum temperature yesterday: 88 °F (at 1:30 PM)
Minimum temperature yesterday: 72 °F (at 5:30 AM)
Average temperature yesterday: 81 °F

High & Low Weather Summary for the Past Weeks

 TemperatureHumidityPressure
High93 °F (May 23, 3:30 PM)100% (May 18, 8:30 PM)29.98 "Hg (May 18, 8:30 PM)
Low68 °F (May 18, 8:30 PM)38% (May 22, 3:30 PM)29.65 "Hg (May 18, 5:30 PM)
Average81 °F64%29.87 "Hg
* Reported May 16 5:30 AM — May 31 6:00 AM, Dharmapuri, Weather by CustomWeather, © 2016

Note: Actual official high and low records may vary slightly from our data, if they occured in-between our weather recording intervals... More about our weather records

Advertising

Dharmapuri Weather History for the Previous 24 Hours

Scroll right to see more
 ConditionsComfort  
Time TempWeatherWind HumidityBarometerVisibility
6:00 AM
Tue, May 31
73 °FPassing clouds.6 mph83%29.89 "Hg5 mi
5:30 AM73 °FPassing clouds.7 mph83%29.89 "Hg5 mi
11:30 PM
Mon, May 30
73 °FPassing clouds.9 mph83%29.92 "Hg5 mi
10:30 PM73 °FPassing clouds.9 mph89%29.92 "Hg5 mi
9:30 PM73 °FPassing clouds.9 mph89%29.92 "Hg5 mi
8:30 PM81 °FPassing clouds.13 mph62%29.92 "HgN/A
7:30 PM84 °FPassing clouds.3 mph55%29.86 "HgN/A
6:30 PM86 °FScattered clouds.6 mph52%29.83 "HgN/A
5:30 PM88 °FScattered clouds.6 mph49%29.80 "HgN/A
5:00 PM88 °FScattered clouds.7 mph49%29.83 "HgN/A
4:30 PM88 °FScattered clouds.6 mph49%29.83 "HgN/A
4:00 PM86 °FScattered clouds.7 mph55%29.83 "HgN/A
3:30 PM88 °FScattered clouds.8 mph52%29.83 "HgN/A
3:00 PM88 °FScattered clouds.7 mph52%29.86 "HgN/A
2:30 PM88 °FScattered clouds.7 mph52%29.86 "HgN/A
2:00 PM88 °FScattered clouds.7 mph52%29.86 "HgN/A
1:30 PM88 °FScattered clouds.9 mph52%29.89 "HgN/A
1:00 PM86 °FScattered clouds.7 mph55%29.89 "HgN/A
12:30 PM86 °FScattered clouds.7 mph55%29.89 "HgN/A
12:00 PM86 °FScattered clouds.7 mph55%29.92 "HgN/A
11:30 AM84 °FScattered clouds.7 mph58%29.92 "HgN/A
11:00 AM84 °FScattered clouds.9 mph58%29.95 "HgN/A
10:30 AM82 °FScattered clouds.9 mph62%29.95 "HgN/A
10:00 AM81 °FScattered clouds.9 mph70%29.95 "HgN/A
9:30 AM81 °FPassing clouds.9 mph74%29.95 "HgN/A
9:00 AM79 °FPassing clouds.7 mph70%29.95 "HgN/A
8:30 AM77 °FPassing clouds.7 mph74%29.92 "HgN/A
8:00 AM77 °FPassing clouds.7 mph74%29.92 "HgN/A
7:30 AM75 °FPassing clouds.9 mph78%29.92 "HgN/A
7:00 AM73 °FPassing clouds.9 mph89%29.92 "Hg5 mi
Weather by CustomWeather, © 2016

See weather overviewHow to use our weather pages